Regional Weather Roundup
Issued by NWS

Home | Current Version | Previous Version | Graphics & Text | Print | Product List | Glossary On
Versions: 1 2 3 4 5 6 7 8 9 10 11 12 13 14 15 16 17 18 19 20 21 22 23 24 25 26 27 28 29 30 31 32 33 34 35 36 37 38 39 40 41 42 43 44 45 46 47 48 49 50
000
ASUS43 KBIS 240810
RWRND

NORTH DAKOTA REGIONAL WEATHER ROUNDUP
NATIONAL WEATHER SERVICE BISMARCK ND
300 AM CDT FRI OCT 24 2014

NOTE: "FAIR" INDICATES FEW OR NO CLOUDS BELOW 12,000 FEET WITH NO
SIGNIFICANT WEATHER AND/OR OBSTRUCTIONS TO VISIBILITY.


NDZ001>003-009>011-017-240900-
NORTHWEST NORTH DAKOTA

CITY           SKY/WX    TMP DP  RH WIND       PRES   REMARKS
WILLISTON      MOCLDY    44  35  70 S3        29.79S
MINOT          MOCLDY    53  33  46 SW13      29.75R
MINOT AFB      MOCLDY    51  36  56 W12       29.74R
$$

NDZ018>021-031>035-040>046-240900-
SOUTHWEST NORTH DAKOTA

CITY           SKY/WX    TMP DP  RH WIND       PRES   REMARKS
BISMARCK       CLOUDY    41  32  70 SE3       29.81F
DICKINSON      CLOUDY    47  32  56 W6        29.82R
GARRISON         N/A     46  38  73 W7        29.78S
HETTINGER ARPT MOCLDY    39  29  67 CALM      29.87S
$$

NDZ004>008-012>016-024-026-027-054-240900-
NORTHEAST NORTH DAKOTA

CITY           SKY/WX    TMP DP  RH WIND       PRES   REMARKS
GRAND FORKS    MOCLDY    43  37  79 S6        29.74F
GRND FRKS AFB  MOCLDY    52  38  57 SW8       29.75S
DEVILS LAKE    CLOUDY    52  39  62 SW7       29.74F
$$

NDZ022-023-025-028>030-036>039-047>053-240900-
SOUTHEAST NORTH DAKOTA

CITY           SKY/WX    TMP DP  RH WIND       PRES   REMARKS
FARGO          MOCLDY    51  43  74 S9        29.81S
JAMESTOWN      CLOUDY    47  37  68 S5        29.79S
$$




USA.gov is the U.S. government's official web portal to all federal, state and local government web resources and services.